New Bern, NC

11:50 AM EST on December 12, 2019 (GMT -0500)
Craven County Regional

Weather History for KEWN - August, 2019

Change the Weather History Date:

Wednesday, August 7, 2019

  Actual Average Record
Temperature  
Mean Temperature 81 °F 80 °F  
Max Temperature 91 °F 89 °F 98 °F (1968)
Min Temperature 71 °F 71 °F 56 °F (2004)
Degree Days  
Heating Degree Days 0 0  
Month to date heating degree days 0 0  
Since 1 June heating degree days 0 1  
Since 1 July heating degree days 0 0  
Cooling Degree Days 16 15  
Month to date cooling degree days 106 105  
Year to date cooling degree days 1425 1195  
Since 1 June cooling degree days 1006 952  
Growing Degree Days 31 (Base 50)    
Moisture  
Dew Point 74 °F    
Average Humidity 88    
Maximum Humidity 100    
Minimum Humidity 63    
Precipitation  
Precipitation 0.42 in 0.23 in 1.89 in (1992)
Month to date precipitation 2.41 1.56  
Year to date precipitation 25.35 31.71  
Snow  
Snow 0.00 in - - ()
Month to date snowfall 0.0  
Since 1 July snowfall 0.0  
Snow Depth 0.00 in    
Sea Level Pressure  
Sea Level Pressure 29.88 in    
Wind  
Wind Speed 5 mph ()    
Max Wind Speed 23 mph    
Max Gust Speed 31 mph    
Visibility 9.1 miles    
Events Rain , Thunderstorm    
T = Trace of Precipitation, MM = Missing Value Source: Averaged Metar Reports

Daily Weather History Graph

Daily Weather History Graph

Search for Another Location

Airport or City:

Astronomy

Aug. 07, 2019 Rise Set
Actual Time 6:21 AM EDT 8:05 PM EDT
Civil Twilight 5:54 AM EDT 8:32 PM EDT
Nautical Twilight 5:21 AM EDT 9:05 PM EDT
Astronomical Twilight 4:46 AM EDT 9:40 PM EDT
Moon 1:34 PM EDT (8/7) 12:05 AM EDT (8/7)
Length of Visible Light 14h 38m
Length of Day
13h 43m
Waxing Crescent, 49% of the Moon is Illuminated
Aug 7
Waxing Crescent
Aug 7
First Quarter
Aug 15
Full
Aug 23
Last Quarter
Aug 30
New

Hourly Weather History & Observations

Time (EDT) Temp. Heat Index Dew Point Humidity Pressure Visibility Wind Dir Wind Speed Gust Speed Precip Events Conditions
12:54 AM 73.9 °F - 73.0 °F 97% 29.92 in 10.0 mi Calm Calm - N/A   Clear
1:54 AM 73.9 °F - 73.0 °F 97% 29.92 in 9.0 mi SW 3.5 mph - N/A   Clear
2:54 AM 73.9 °F - 73.9 °F 100% 29.91 in 10.0 mi Calm Calm - N/A   Clear
3:54 AM 73.9 °F - 73.0 °F 97% 29.91 in 10.0 mi South 3.5 mph - N/A   Clear
4:54 AM 73.9 °F - 73.9 °F 100% 29.91 in 10.0 mi South 4.6 mph - N/A   Clear
6:54 AM 73.9 °F - 73.9 °F 100% 29.92 in 9.0 mi Calm Calm - N/A   Clear
7:54 AM 77.0 °F - 75.9 °F 96% 29.92 in 10.0 mi SW 5.8 mph - N/A   Clear
8:54 AM 80.1 °F 85.8 °F 77.0 °F 90% 29.93 in 10.0 mi WSW 5.8 mph - N/A   Clear
9:54 AM 84.9 °F 94.1 °F 75.9 °F 74% 29.93 in 10.0 mi WSW 6.9 mph - N/A   Clear
10:54 AM 88.0 °F 98.5 °F 75.9 °F 67% 29.92 in 10.0 mi SSW 6.9 mph - N/A   Mostly Cloudy
11:54 AM 90.0 °F 101.3 °F 75.9 °F 63% 29.91 in 10.0 mi Variable 6.9 mph - N/A   Mostly Cloudy
12:51 PM 86.0 °F 93.4 °F 73.4 °F 66% 29.90 in 8.0 mi South 13.8 mph 21.9 mph 0.01 in Rain , Thunderstorm Light Thunderstorms and Rain
12:54 PM 84.0 °F 91.2 °F 73.9 °F 72% 29.90 in 7.0 mi South 9.2 mph 21.9 mph 0.01 in Rain , Thunderstorm Light Thunderstorms and Rain
1:09 PM 80.1 °F 84.5 °F 73.9 °F 81% 29.90 in 8.0 mi WNW 5.8 mph - 0.01 in Rain Light Rain
1:20 PM 80.1 °F 84.2 °F 73.0 °F 79% 29.89 in 10.0 mi North 5.8 mph - 0.01 in Thunderstorm Scattered Clouds
1:39 PM 78.1 °F - 73.9 °F 87% 29.89 in 10.0 mi South 9.2 mph 19.6 mph 0.01 in Thunderstorm Thunderstorm
1:54 PM 77.0 °F - 73.9 °F 90% 29.88 in 9.0 mi SSW 9.2 mph - 0.02 in Rain , Thunderstorm Light Thunderstorms and Rain
2:52 PM 73.4 °F - 69.8 °F 88% 29.87 in 10.0 mi SE 8.1 mph - 0.02 in Rain , Thunderstorm Light Rain
2:54 PM 73.0 °F - 70.0 °F 90% 29.88 in 10.0 mi SSE 10.4 mph - 0.02 in Rain , Thunderstorm Light Rain
3:07 PM 73.0 °F - 70.0 °F 90% 29.88 in 10.0 mi South 8.1 mph - 0.00 in Rain Light Rain
3:23 PM 75.9 °F - 73.0 °F 91% 29.87 in 10.0 mi South 11.5 mph - 0.00 in Thunderstorm Partly Cloudy
3:38 PM 77.0 °F - 72.0 °F 84% 29.86 in 10.0 mi South 9.2 mph - 0.00 in   Clear
3:54 PM 75.9 °F - 72.0 °F 87% 29.85 in 10.0 mi South 5.8 mph - 0.00 in   Partly Cloudy
4:11 PM 77.0 °F - 72.0 °F 84% 29.85 in 10.0 mi South 8.1 mph - N/A Thunderstorm Scattered Clouds
4:26 PM 78.1 °F - 73.0 °F 84% 29.84 in 10.0 mi South 13.8 mph - N/A   Partly Cloudy
4:36 PM 77.0 °F - 73.0 °F 88% 29.84 in 10.0 mi South 12.7 mph - 0.00 in Rain , Thunderstorm Light Rain
4:54 PM 75.9 °F - 72.0 °F 87% 29.83 in 7.0 mi SW 8.1 mph - 0.03 in Rain , Thunderstorm Light Rain
5:28 PM 81.0 °F 88.6 °F 78.1 °F 91% 29.82 in 9.0 mi WSW 5.8 mph - 0.04 in Rain Light Rain
5:46 PM 81.0 °F 89.2 °F 79.0 °F 94% 29.82 in 10.0 mi SSW 9.2 mph - 0.05 in Rain Light Rain
6:54 PM 82.9 °F 90.8 °F 75.9 °F 79% 29.83 in 10.0 mi South 10.4 mph 19.6 mph N/A   Clear
7:13 PM 82.0 °F 90.2 °F 77.0 °F 85% 29.83 in 10.0 mi South 5.8 mph - N/A Thunderstorm Clear
7:52 PM 80.6 °F 86.2 °F 75.2 °F 84% 29.84 in 10.0 mi NNW 5.8 mph - N/A Thunderstorm Thunderstorm
7:54 PM 81.0 °F 87.3 °F 75.9 °F 85% 29.84 in 10.0 mi NNW 6.9 mph - N/A Thunderstorm Thunderstorm
8:12 PM 79.0 °F - 75.0 °F 88% 29.84 in 10.0 mi East 4.6 mph - N/A Thunderstorm Mostly Cloudy
8:34 PM 78.1 °F - 75.9 °F 93% 29.85 in 10.0 mi East 3.5 mph - N/A   Partly Cloudy
8:54 PM 78.1 °F - 75.9 °F 93% 29.86 in 10.0 mi ESE 4.6 mph - N/A   Partly Cloudy
9:05 PM 79.0 °F - 77.0 °F 94% 29.87 in 10.0 mi East 3.5 mph - N/A Thunderstorm Partly Cloudy
9:14 PM 79.0 °F - 77.0 °F 94% 29.89 in 10.0 mi NW 12.7 mph 25.3 mph N/A Thunderstorm Thunderstorm
9:34 PM 72.0 °F - 70.0 °F 93% 29.91 in 3.0 mi WSW 10.4 mph 28.8 mph 0.10 in Rain , Thunderstorm Heavy Thunderstorms and Rain
9:37 PM 71.1 °F - 70.0 °F 96% 29.91 in 1.8 mi SSW 8.1 mph 28.8 mph 0.22 in Rain , Thunderstorm Heavy Thunderstorms and Rain
9:47 PM 72.0 °F - 68.0 °F 87% 29.87 in 2.5 mi South 11.5 mph 21.9 mph 0.29 in Rain , Thunderstorm Light Thunderstorms and Rain
9:54 PM 72.0 °F - 68.0 °F 87% 29.90 in 10.0 mi NNE 8.1 mph - 0.29 in Thunderstorm Thunderstorm
10:11 PM 72.0 °F - 70.0 °F 93% 29.90 in 10.0 mi East 6.9 mph - N/A Thunderstorm Clear
10:24 PM 72.0 °F - 71.1 °F 97% 29.89 in 6.0 mi SSE 6.9 mph - 0.00 in Rain Rain
10:54 PM 72.0 °F - 71.1 °F 97% 29.87 in 10.0 mi South 4.6 mph - 0.00 in   Partly Cloudy
11:54 PM 73.0 °F - 72.0 °F 96% 29.88 in 10.0 mi South 4.6 mph - 0.00 in Rain Light Rain